EA1QW Weather Reports


Display with metric or nautical units.
time (UTC)temp
F
wind
direction
speed
MPH
gust
MPH
rain 1hr
in
rain 24hr
in
rain mn
in
humidity
%
barometer
mb
20200407043044 54 87 1.0 4.0 0.00 1.38 0.00 92 1019.9
20200407042552 54 32 2.0 5.0 0.00 1.38 0.00 92 1019.9
20200407042039 54 32 2.0 5.0 0.00 1.38 0.00 92 1019.9
20200407041546 54 91 3.0 5.0 0.00 1.38 0.00 92 1019.9
20200407041053 54 101 2.0 6.0 0.00 1.38 0.00 92 1020.0
20200407040540 54 91 2.0 6.0 0.00 1.38 0.00 92 1020.0
20200407040046 54 103 4.0 8.0 0.00 1.38 0.00 92 1020.0
20200407035554 54 88 5.0 8.0 0.00 1.42 0.00 92 1020.1
20200407035042 54 84 3.0 8.0 0.00 1.42 0.00 92 1020.1
20200407034551 54 85 5.0 8.0 0.00 1.42 0.00 91 1020.1
20200407034039 54 65 2.0 8.0 0.00 1.42 0.00 92 1020.2
20200407033547 54 105 3.0 7.0 0.00 1.42 0.00 92 1020.2
20200407033051 54 102 4.0 9.0 0.00 1.42 0.00 92 1020.2
20200407032547 54 90 5.0 9.0 0.00 1.42 0.00 92 1020.3
20200407032050 54 86 5.0 9.0 0.00 1.42 0.00 92 1020.3
20200407031538 54 87 4.0 7.0 0.00 1.42 0.00 92 1020.3
20200407031041 54 142 1.0 10.0 0.00 1.42 0.00 92 1020.3
20200407030550 54 142 2.0 10.0 0.00 1.42 0.00 92 1020.3
20200407030037 54 105 3.0 9.0 0.00 1.42 0.00 92 1020.3
20200407025545 54 107 1.0 9.0 0.00 1.42 0.00 92 1020.4
20200407025045 54 96 6.0 9.0 0.00 1.42 0.00 92 1020.4
20200407024552 54 91 2.0 6.0 0.00 1.42 0.00 92 1020.4
20200407024040 54 76 2.0 6.0 0.00 1.42 0.00 92 1020.4
20200407023549 54 23 3.0 6.0 0.00 1.42 0.00 92 1020.4
20200407023041 54 94 2.0 5.0 0.00 1.42 0.00 93 1020.4
20200407022549 54 96 1.0 7.0 0.00 1.42 0.00 93 1020.5
20200407022037 54 78 1.0 6.0 0.00 1.42 0.00 92 1020.5
20200407021542 54 62 1.0 5.0 0.00 1.42 0.00 92 1020.5
20200407021050 54 86 2.0 6.0 0.00 1.42 0.00 92 1020.5
20200407020538 54 55 3.0 8.0 0.00 1.42 0.00 92 1020.5
20200407020046 54 90 3.0 9.0 0.00 1.42 0.00 92 1020.5
20200407015555 54 82 4.0 9.0 0.00 1.42 0.00 92 1020.6
20200407015043 54 84 3.0 9.0 0.00 1.42 0.00 92 1020.6
20200407014553 54 82 3.0 9.0 0.00 1.42 0.00 92 1020.6
20200407014043 54 57 4.0 8.0 0.00 1.42 0.00 92 1020.7
20200407013551 54 126 4.0 10.0 0.00 1.42 0.00 92 1020.7
20200407013038 54 53 2.0 14.0 0.00 1.42 0.00 92 1020.7
20200407012546 54 103 8.0 13.0 0.00 1.42 0.00 92 1020.6
20200407012053 54 107 6.0 13.0 0.00 1.42 0.00 92 1020.6
20200407011541 54 105 6.0 11.0 0.00 1.42 0.00 92 1020.6
20200407011049 54 51 5.0 11.0 0.00 1.42 0.00 92 1020.9
20200407010538 54 96 4.0 9.0 0.00 1.42 0.00 92 1020.9
20200407010048 54 103 3.0 8.0 0.00 1.42 0.00 92 1020.9
20200407005536 54 39 5.0 8.0 0.00 1.42 0.00 92 1020.8
20200407005044 54 87 3.0 11.0 0.00 1.42 0.00 92 1020.8
20200407004551 54 76 5.0 11.0 0.00 1.42 0.00 92 1020.8
20200407004038 54 88 3.0 11.0 0.00 1.42 0.00 92 1020.9
20200407003546 54 88 7.0 11.0 0.00 1.42 0.00 92 1020.9
20200407003035 54 69 3.0 8.0 0.00 1.42 0.00 92 1020.9
20200407002545 54 103 4.0 8.0 0.00 1.42 0.00 92 1020.8
20200407002052 54 58 4.0 9.0 0.00 1.42 0.00 92 1020.8
20200407001542 54 58 3.0 9.0 0.00 1.42 0.00 92 1020.8
20200407001050 54 60 5.0 9.0 0.00 1.42 0.00 92 1020.9
20200407000539 54 75 2.0 4.0 0.00 1.42 0.00 92 1020.9
20200407000047 54 55 1.0 5.0 0.00 1.42 0.00 92 1020.9
20200406235536 54 52 2.0 5.0 0.00 1.42 0.28 92 1020.9
20200406235042 54 32 0.0 4.0 0.00 1.42 0.28 92 1020.9
20200406234552 54 38 1.0 6.0 0.00 1.42 0.28 92 1020.9
20200406234039 54 45 3.0 6.0 0.00 1.42 0.28 92 1020.9
20200406233548 54 85 2.0 6.0 0.00 1.42 0.28 92 1020.9
20200406233037 54 36 4.0 7.0 0.00 1.42 0.28 92 1020.9
20200406232548 54 39 3.0 9.0 0.00 1.42 0.28 92 1020.9
20200406232037 54 79 5.0 9.0 0.00 1.42 0.28 92 1020.9
20200406231546 54 95 6.0 8.0 0.00 1.42 0.28 92 1020.9
20200406231053 54 86 3.0 8.0 0.00 1.42 0.28 92 1020.9
20200406230541 54 88 4.0 10.0 0.00 1.42 0.28 92 1020.9
20200406230047 54 54 4.0 9.0 0.00 1.42 0.28 92 1020.9
20200406225554 54 46 4.0 9.0 0.00 1.42 0.28 92 1020.9
20200406225041 54 67 3.0 8.0 0.00 1.42 0.28 92 1020.9
20200406224546 54 86 5.0 8.0 0.00 1.42 0.28 92 1020.9
20200406224052 54 85 3.0 8.0 0.00 1.42 0.28 92 1020.9
20200406223540 54 119 4.0 8.0 0.00 1.42 0.28 92 1020.9
20200406223044 54 58 4.0 8.0 0.00 1.42 0.28 92 1020.9
20200406222553 54 49 4.0 7.0 0.00 1.42 0.28 92 1020.9
20200406222041 54 51 3.0 6.0 0.00 1.42 0.28 92 1020.9
20200406221548 54 90 3.0 6.0 0.00 1.42 0.28 92 1020.9
20200406221054 54 108 3.0 8.0 0.00 1.42 0.28 92 1020.9
20200406220541 54 69 4.0 8.0 0.00 1.42 0.28 92 1020.9
20200406220042 54 76 1.0 7.0 0.00 1.42 0.28 92 1020.9
20200406215547 54 45 4.0 10.0 0.00 1.42 0.28 92 1021.0
20200406215048 54 58 5.0 10.0 0.00 1.42 0.28 92 1021.0
20200406214555 54 71 4.0 10.0 0.00 1.42 0.28 92 1021.0
20200406214040 54 63 4.0 6.0 0.00 1.42 0.28 92 1021.0
20200406213548 54 20 3.0 6.0 0.00 1.42 0.28 92 1021.0
20200406213036 54 67 3.0 7.0 0.00 1.42 0.28 92 1021.0
20200406212545 54 99 1.0 7.0 0.00 1.42 0.28 92 1021.0
20200406212054 54 79 1.0 7.0 0.00 1.42 0.28 92 1021.0
20200406211540 54 69 4.0 7.0 0.00 1.42 0.28 92 1021.0
20200406211042 54 68 3.0 7.0 0.00 1.42 0.28 92 1021.2
20200406210550 54 95 4.0 7.0 0.00 1.42 0.28 92 1021.2
20200406210035 54 59 2.0 8.0 0.00 1.42 0.28 92 1021.2
20200406205542 54 24 4.0 8.0 0.00 1.42 0.28 92 1021.4
20200406205050 54 55 5.0 8.0 0.00 1.42 0.28 91 1021.4
20200406204541 54 38 3.0 8.0 0.00 1.42 0.28 91 1021.4
20200406204048 54 55 4.0 9.0 0.00 1.42 0.28 91 1021.5
20200406203535 54 79 3.0 8.0 0.00 1.42 0.28 91 1021.5
20200406203042 54 70 3.0 8.0 0.00 1.42 0.28 91 1021.5
20200406202548 54 68 4.0 7.0 0.00 1.42 0.28 91 1021.5
20200406202035 54 52 1.0 4.0 0.00 1.42 0.28 91 1021.5
20200406201552 54 59 1.0 8.0 0.00 1.42 0.28 91 1021.5
20200406201038 54 76 3.0 8.0 0.00 1.42 0.28 91 1021.4
20200406200546 54 53 3.0 9.0 0.00 1.42 0.28 91 1021.4
20200406200054 54 49 4.0 9.0 0.00 1.42 0.28 91 1021.4
20200406195553 54 90 3.0 11.0 0.00 1.42 0.28 91 1021.3
20200406195054 54 41 5.0 11.0 0.00 1.42 0.28 91 1021.3
20200406194536 54 84 3.0 10.0 0.00 1.42 0.28 91 1021.3
20200406194038 54 45 5.0 10.0 0.00 1.42 0.28 91 1021.0
20200406193540 54 85 4.0 10.0 0.00 1.42 0.28 91 1021.0
20200406193043 54 41 6.0 10.0 0.00 1.42 0.28 91 1021.0
20200406192546 54 41 5.0 8.0 0.00 1.42 0.28 91 1020.9
20200406192056 54 32 2.0 8.0 0.00 1.42 0.28 91 1020.9
20200406191538 54 58 3.0 8.0 0.00 1.42 0.28 91 1020.9
20200406191038 54 36 3.0 9.0 0.00 1.42 0.28 91 1020.8
20200406190540 54 28 5.0 12.0 0.00 1.42 0.28 90 1020.8
20200406190041 54 41 4.0 13.0 0.00 1.42 0.28 90 1020.8
20200406185547 54 56 4.0 13.0 0.00 1.42 0.28 90 1020.8
20200406185051 54 65 5.0 12.0 0.00 1.42 0.28 90 1020.8
20200406184541 55 73 4.0 10.0 0.00 1.42 0.28 90 1020.8
20200406184046 55 84 3.0 9.0 0.00 1.42 0.28 90 1020.9
20200406183551 55 40 4.0 10.0 0.00 1.42 0.28 90 1020.9
20200406183037 55 62 6.0 10.0 0.00 1.42 0.28 90 1020.9
20200406182545 55 72 5.0 9.0 0.00 1.42 0.28 90 1024.1
20200406182052 55 38 4.0 14.0 0.00 1.42 0.28 90 1024.1
20200406181537 55 78 7.0 14.0 0.00 1.42 0.28 89 1024.1
20200406181040 55 36 5.0 11.0 0.00 1.42 0.28 89 1024.0
20200406180540 55 57 7.0 11.0 0.00 1.42 0.28 89 1024.0
20200406180051 55 60 5.0 11.0 0.00 1.42 0.28 88 1024.0
20200406175635 56 32 7.0 11.0 0.00 1.42 0.28 88 1023.9
20200406175037 56 20 3.0 12.0 0.00 1.42 0.28 87 1023.9
20200406174546 56 57 7.0 12.0 0.00 1.42 0.28 87 1023.9
20200406174054 56 90 6.0 12.0 0.00 1.42 0.28 87 1023.8
20200406173539 56 54 4.0 12.0 0.00 1.42 0.28 87 1023.8
20200406173044 56 60 5.0 9.0 0.00 1.42 0.28 87 1023.8
20200406172553 57 59 5.0 9.0 0.00 1.42 0.28 87 1023.6
20200406172037 57 56 4.0 9.0 0.00 1.42 0.28 86 1023.6
20200406171542 57 44 2.0 8.0 0.00 1.42 0.28 86 1023.6
20200406171051 57 38 2.0 12.0 0.00 1.42 0.28 86 1023.4
20200406170540 57 69 6.0 12.0 0.00 1.42 0.28 85 1023.4
20200406170044 57 60 4.0 10.0 0.00 1.42 0.28 85 1023.4
20200406165552 57 101 6.0 10.0 0.00 1.42 0.28 84 1023.4
20200406165052 57 83 6.0 10.0 0.00 1.42 0.28 84 1023.4
20200406164553 57 14 5.0 12.0 0.00 1.42 0.28 84 1023.4
20200406164039 57 94 6.0 12.0 0.00 1.42 0.28 84 1023.4
20200406163546 57 22 8.0 12.0 0.00 1.42 0.28 84 1023.4
20200406163047 57 66 9.0 14.0 0.00 1.42 0.28 84 1023.4
20200406162555 57 61 6.0 14.0 0.00 1.42 0.28 84 1023.4
20200406162055 57 59 8.0 14.0 0.00 1.42 0.28 83 1023.4
20200406161542 58 30 8.0 12.0 0.00 1.42 0.28 83 1023.4
20200406161044 58 55 6.0 12.0 0.00 1.42 0.28 83 1023.4
20200406160547 58 25 7.0 14.0 0.00 1.42 0.28 83 1023.4
20200406160047 58 119 8.0 14.0 0.00 1.42 0.28 82 1023.4
20200406155553 58 60 8.0 14.0 0.00 1.42 0.28 82 1023.4
20200406155054 59 35 7.0 14.0 0.00 1.42 0.28 81 1023.4
20200406154541 59 49 6.0 13.0 0.00 1.42 0.28 81 1023.4
20200406154051 59 30 7.0 14.0 0.00 1.42 0.28 80 1023.3
20200406153540 59 60 8.0 14.0 0.00 1.42 0.28 79 1023.3
20200406153049 59 38 8.0 14.0 0.00 1.42 0.28 79 1023.3
20200406152537 59 31 9.0 14.0 0.00 1.42 0.28 80 1023.3
20200406152049 60 49 8.0 13.0 0.00 1.42 0.28 79 1023.3
20200406151536 60 83 7.0 14.0 0.00 1.42 0.28 79 1023.3
20200406151046 60 94 6.0 13.0 0.00 1.42 0.28 79 1023.4
20200406150543 60 85 8.0 13.0 0.00 1.42 0.28 78 1023.4
20200406150054 60 78 7.0 14.0 0.00 1.42 0.28 77 1023.4
20200406145545 61 102 8.0 14.0 0.00 1.42 0.28 77 1023.4
20200406145051 61 73 5.0 10.0 0.00 1.42 0.28 78 1023.4
20200406144536 60 76 6.0 12.0 0.00 1.42 0.28 79 1023.4
20200406144048 60 13 9.0 13.0 0.00 1.42 0.28 80 1023.5
20200406143539 59 40 8.0 14.0 0.00 1.42 0.28 81 1023.5
20200406143051 59 79 7.0 14.0 0.00 1.42 0.28 84 1023.5
20200406142541 58 44 2.0 9.0 0.00 1.42 0.28 87 1023.4
20200406142052 58 90 3.0 9.0 0.00 1.42 0.28 87 1023.4
20200406141542 58 76 6.0 9.0 0.00 1.42 0.28 88 1023.4
20200406141054 58 27 3.0 9.0 0.00 1.42 0.28 89 1023.4
20200406140540 57 28 5.0 9.0 0.00 1.42 0.28 89 1023.4
20200406140046 57 42 5.0 9.0 0.00 1.42 0.28 90 1023.4
20200406135611 58 53 5.0 9.0 0.00 1.42 0.28 90 1023.4
20200406135039 58 82 5.0 9.0 0.00 1.42 0.28 91 1023.4
20200406134545 57 42 5.0 10.0 0.00 1.42 0.28 91 1023.4
20200406134052 57 34 7.0 10.0 0.00 1.42 0.28 91 1023.5
20200406133536 57 87 5.0 9.0 0.00 1.42 0.28 91 1023.5
20200406133042 57 11 4.0 9.0 0.00 1.42 0.28 91 1023.5
20200406132549 57 17 4.0 7.0 0.00 1.42 0.28 91 1023.6
20200406132053 57 30 3.0 8.0 0.00 1.42 0.28 91 1023.6
20200406131536 57 9 3.0 8.0 0.00 1.42 0.28 91 1023.6
20200406131045 57 49 4.0 8.0 0.00 1.42 0.28 91 1023.4
20200406130552 57 32 5.0 8.0 0.00 1.42 0.28 91 1023.4
20200406130038 57 56 5.0 8.0 0.00 1.42 0.28 91 1023.4
20200406125548 56 40 4.0 10.0 0.00 1.42 0.28 91 1023.4
20200406125039 56 18 6.0 10.0 0.00 1.42 0.28 91 1023.4
20200406124547 57 20 7.0 11.0 0.00 1.42 0.28 91 1023.4
20200406124040 57 13 6.0 11.0 0.00 1.42 0.28 91 1023.4
20200406123550 57 65 5.0 9.0 0.00 1.42 0.28 91 1023.4
20200406123044 57 32 5.0 10.0 0.00 1.42 0.28 91 1023.4
20200406122537 57 30 6.0 10.0 0.00 1.42 0.28 91 1023.4
20200406122048 57 44 5.0 9.0 0.00 1.42 0.28 91 1023.4
20200406121542 57 14 7.0 9.0 0.00 1.42 0.28 91 1023.4
20200406121052 57 49 5.0 8.0 0.00 1.42 0.28 92 1023.4
20200406120546 57 38 6.0 8.0 0.00 1.42 0.28 92 1023.4
20200406120039 56 5 4.0 7.0 0.00 1.42 0.28 92 1023.4
20200406115550 56 26 3.0 7.0 0.00 1.42 0.28 92 1023.4
20200406115042 56 355 4.0 8.0 0.00 1.42 0.28 92 1023.4
20200406114538 56 20 5.0 8.0 0.00 1.42 0.28 92 1023.4
20200406114046 56 10 6.0 8.0 0.00 1.42 0.28 92 1023.3
20200406113553 56 5 4.0 7.0 0.00 1.42 0.28 92 1023.3
20200406113045 56 41 4.0 7.0 0.00 1.42 0.28 92 1023.3
20200406112534 56 18 3.0 5.0 0.00 1.42 0.28 92 1023.2
20200406112045 56 44 3.0 5.0 0.00 1.42 0.28 92 1023.2
20200406111535 56 355 3.0 6.0 0.00 1.42 0.28 92 1023.2
20200406111050 55 15 4.0 6.0 0.00 1.42 0.28 92 1023.3
20200406110544 55 54 2.0 4.0 0.00 1.42 0.28 92 1023.3
20200406110035 55 56 2.0 4.0 0.00 1.42 0.28 92 1023.3
20200406105549 55 100 1.0 5.0 0.00 1.42 0.28 92 1023.2
20200406105039 55 100 2.0 6.0 0.00 1.42 0.28 92 1023.2
20200406104551 55 101 3.0 6.0 0.00 1.42 0.28 92 1023.2
20200406104041 55 101 2.0 5.0 0.00 1.42 0.28 93 1019.6
20200406103535 55 99 1.0 5.0 0.00 1.42 0.28 93 1019.6
20200406103050 55 100 2.0 5.0 0.00 1.42 0.28 93 1019.6
20200406102537 55 99 1.0 3.0 0.00 1.42 0.28 93 1019.6
20200406102046 54 99 0.0 3.0 0.00 1.42 0.28 93 1019.6
20200406101548 54 98 1.0 5.0 0.00 1.42 0.28 93 1019.6
20200406101051 54 101 2.0 5.0 0.00 1.42 0.28 93 1019.5
20200406100535 54 79 2.0 5.0 0.00 1.42 0.28 94 1019.5
20200406100041 54 56 2.0 9.0 0.00 1.42 0.28 94 1019.5
20200406095545 54 78 6.0 9.0 0.00 1.42 0.28 94 1019.5
20200406095048 53 89 3.0 5.0 0.00 1.42 0.28 94 1019.5
20200406094536 53 86 2.0 6.0 0.00 1.42 0.28 94 1019.5
20200406094041 53 86 2.0 6.0 0.04 1.42 0.28 94 1019.5
20200406093548 53 90 3.0 6.0 0.04 1.42 0.28 94 1019.5
20200406093049 53 90 3.0 5.0 0.04 1.42 0.28 94 1019.5
20200406092552 53 86 1.0 5.0 0.04 1.42 0.28 94 1019.4
20200406091537 53 90 3.0 5.0 0.04 1.42 0.28 94 1019.4
20200406091043 52 90 2.0 6.0 0.04 1.42 0.28 94 1019.3
20200406090549 52 88 2.0 6.0 0.04 1.42 0.28 94 1019.3
20200406090037 52 94 2.0 5.0 0.04 1.42 0.28 94 1019.3
20200406085541 52 91 2.0 5.0 0.04 1.42 0.28 94 1019.3
20200406085048 52 103 2.0 4.0 0.04 1.42 0.28 94 1019.3
20200406084535 52 107 2.0 4.0 0.08 1.42 0.28 93 1019.3
20200406084043 52 87 1.0 3.0 0.04 1.38 0.28 94 1019.2
20200406083548 52 87 1.0 3.0 0.04 1.38 0.28 93 1019.2
20200406083039 52 87 2.0 3.0 0.04 1.38 0.28 93 1019.2
20200406082546 52 87 2.0 3.0 0.04 1.38 0.28 94 1018.8
20200406082044 52 87 0.0 6.0 0.08 1.38 0.28 93 1018.8
20200406081552 52 76 2.0 5.0 0.08 1.38 0.28 93 1018.8
20200406081038 52 80 2.0 4.0 0.12 1.38 0.28 93 1018.7
20200406080546 52 80 1.0 6.0 0.12 1.38 0.28 93 1018.7
20200406080052 52 69 3.0 6.0 0.16 1.38 0.28 93 1018.7
20200406075540 52 63 2.0 6.0 0.16 1.38 0.28 93 1018.3
20200406075049 52 44 3.0 6.0 0.20 1.38 0.28 93 1018.3
20200406074539 52 51 2.0 5.0 0.24 1.34 0.27 93 1018.3
20200406074047 52 51 2.0 6.0 0.28 1.34 0.27 93 1018.3
20200406073535 52 34 4.0 6.0 0.28 1.34 0.27 93 1018.3
20200406073041 52 20 4.0 6.0 0.31 1.34 0.27 93 1018.3
20200406072040 53 296 3.0 4.0 0.35 1.30 0.26 93 1020.1
20200406071551 53 275 0.0 3.0 0.35 1.30 0.26 93 1020.1
20200406071046 54 275 0.0 2.0 0.35 1.26 0.25 93 1020.0
20200406070539 54 275 0.0 1.0 0.35 1.22 0.24 93 1019.9
20200406070045 54 275 0.0 0.0 0.35 1.22 0.24 93 1019.8
20200406065539 54 275 0.0 1.0 0.39 1.22 0.24 93 1019.7
20200406065053 54 275 0.0 1.0 0.31 1.14 0.23 92 1019.6
20200406064550 54 275 0.0 0.0 0.28 1.10 0.22 93 1019.4
20200406064045 54 275 0.0 2.0 0.28 1.06 0.21 92 1019.3
20200406063542 54 275 0.0 2.0 0.28 1.06 0.21 92 1019.2
20200406063052 54 275 1.0 2.0 0.24 1.02 0.20 92 1019.1
20200406062546 54 275 0.0 0.0 0.20 0.98 0.20 92 1018.9
20200406062053 55 275 0.0 0.0 0.20 0.94 0.19 92 1018.8
20200406061545 55 275 0.0 0.0 0.20 0.94 0.19 92 1018.8
20200406061051 55 275 0.0 0.0 0.20 0.91 0.18 92 1018.7
20200406060545 55 275 0.0 0.0 0.20 0.87 0.17 92 1018.7
20200406060350 55 275 0.0 0.0 0.24 0.87 0.17 92 1018.6
20200406055549 55 275 0.0 0.0 0.20 0.83 0.17 92 1018.5
20200406055046 55 275 0.0 0.0 0.24 0.83 0.17 92 1018.4
20200406054539 55 275 0.0 0.0 0.28 0.79 0.16 92 1018.3
20200406054046 55 275 0.0 0.0 0.39 0.79 0.16 92 1018.2
20200406053540 55 275 0.0 0.0 0.47 0.79 0.16 91 1018.1
20200406053054 55 275 0.0 0.0 0.51 0.79 0.16 91 1018.0
20200406052550 55 275 0.0 0.0 0.59 0.79 0.16 91 1017.9
20200406052040 55 275 0.0 1.0 0.63 0.75 0.15 91 1017.9
20200406051553 55 275 0.0 2.0 0.67 0.75 0.15 91 1017.9
20200406051046 55 275 1.0 2.0 0.63 0.71 0.14 91 1017.8
20200406050540 55 275 0.0 0.0 0.59 0.67 0.13 91 1017.8
20200406050052 55 275 0.0 0.0 0.59 0.63 0.13 91 1017.7
20200406045558 55 275 0.0 0.0 0.55 0.59 0.12 91 1017.7
20200406045042 56 275 0.0 0.0 0.59 0.59 0.12 91 1017.6
20200406044539 56 275 0.0 0.0 0.51 0.51 0.10 91 1017.6
20200406044045 56 275 0.0 0.0 0.39 0.39 0.08 90 1017.5
20200406043539 56 275 0.0 0.0 0.31 0.31 0.06 90 1017.5